Tracking 28091 objects as of 30-Sep-2023
HD Live streaming from Space Station
objects crossing your sky now

STARLINK-3199

Track STARLINK-3199 now!
10-day predictions
STARLINK-3199 is classified as:


NORAD ID: 49760
Int'l Code: 2021-115AN
Perigee: 545.8 km
Apogee: 547.9 km
Inclination: 53.2 °
Period: 95.4 minutes
Semi major axis: 6917 km
RCS: Unknown
Launch date: December 2, 2021
Source: United States (US)
Launch site: AIR FORCE EASTERN TEST RANGE (AFETR)
Your satellite tracking list
Your tracking list is empty




NASA's NSSDC Master Catalog

Two Line Element Set (TLE):
1 49760U 21115AN  23272.18308321  .00003965  00000-0  26701-3 0  9990
2 49760  53.2167 185.7375 0001562 109.8110 250.3050 15.08849815100940
Source of the keplerian elements: AFSPC